Кака

Туркменистан     37°20′39″N   59°37′03″E
В апреле 2022 года жителям России запретили посещать сайт meteo.paraplan.net по решению Генеральной прокуратуры. Аудитория сайта уменьшилась в 10 раз. Владельцы сайта не видят смысла в поддержке погодного сервера в таких условиях. Сайт будет закрыт в октябре.
темп.,
°C
ветер,
м/с
пор.,
м/с
влажн.,
%
обл.,
%
осадки,
мм/ч
давл.,
гПа
погр.,
м
6 октября, чт
чт623:00+16вюв22190 0.0 102311
02:00+14вюв22180 0.0 102211
05:00+12вюв22180 0.0 102211
08:00+14вюв22150 0.0 102319
11:00+20всв3390 0.0 1022550
14:00+23всв4370 0.0 1020874
17:00+23всв3270 0.0 1020842
20:00+16юв22130 0.0 102111
7 октября, пт
пт723:00+14юв11150 0.0 102111
02:00+13юв11150 0.0 102011
05:00+11юв11160 0.0 102011
08:00+14юз00130 0.0 102111
11:00+22с2480 0.0 1021692
14:00+25с4490 0.0 10201261
17:00+24ссз44100 0.0 10201247
20:00+17зюз11140 0.0 102111
8 октября, сб
сб823:00+16юз11180 0.0 102211
02:00+17юз33190 0.0 102214
05:00+17з23330 0.0 102213
08:00+17зюз22350 0.0 102311
11:00+22с22290 0.0 10231223
14:00+24с54210 0.0 10221730
17:00+23ссз44150 0.0 10211501
20:00+18зсз22170 0.0 102211
9 октября, вс
вс923:00+17ююз22200 0.0 102211
02:00+14ююв00230 0.0 102111
05:00+13юв11250 0.0 102111
08:00+15вюв11220 0.0 102211
11:00+21всв33140 0.0 1022618
14:00+24всв4390 0.0 10201207
17:00+24всв4390 0.0 10201132
20:00+17юв22140 0.0 102111
10 октября, пн
пн1023:00+16юв22150 0.0 102011
02:00+14вюв22180 0.0 101912
05:00+13вюв22200 0.0 101912
08:00+15вюв22190 0.0 101916
11:00+23в33120 0.0 1018511
14:00+27в4490 0.0 1015950
17:00+27всв5490 0.0 1014891
20:00+19юв12170 0.0 101514